Regional Weather Roundup
Issued by NWS

Home | Current Version | Previous Version | Graphics & Text | Print | Product List | Glossary On
Versions: 1 2 3 4 5 6 7 8 9 10 11 12 13 14 15 16 17 18 19 20 21 22 23 24 25 26 27 28 29 30 31 32 33 34 35 36 37 38 39 40 41 42 43 44 45 46 47 48 49 50
000
ASUS43 KOAX 041810
RWRNE

WEATHER ROUNDUP FOR NEBRASKA
NATIONAL WEATHER SERVICE OMAHA NE
100 PM CDT TUE AUG 04 2015

NOTES: SATELLITE DATA IS BEING USED TO AUGMENT CLOUD COVER ABOVE
       12000 FEET.
       "FAIR" INDICATES FEW OR NO CLOUDS BELOW 12,000 FEET WITH NO
       SIGNIFICANT WEATHER AND/OR OBSTRUCTIONS TO VISIBILITY.

  * THESE STATIONS DO NOT REPORT WEATHER SUCH AS RAIN...SNOW OR FOG.

NEZ001>004-019>022-054>056-041900-
NEBRASKA PANHANDLE

CITY           SKY/WX    TMP DP  RH WIND       PRES   REMARKS
SCOTTSBLUFF    MOSUNNY   78  55  44 E8        30.00F
6HR MIN TEMP:  58; 6HR MAX TEMP:  78; 6HR PCP:  0.01;

ALLIANCE       CLOUDY    69  63  81 SE18      30.02S
6HR MIN TEMP:  56; 6HR MAX TEMP:  70;

CHADRON        MOSUNNY   80  59  48 S23G32    29.95F
6HR MIN TEMP:  57; 6HR MAX TEMP:  82;

KIMBALL        CLOUDY    73  51  46 NE7       30.03S
SIDNEY         PTSUNNY   73  58  59 NE8       30.02S
6HR MIN TEMP:  59; 6HR MAX TEMP:  78; 6HR PCP:  0.01;

$$

NEZ057>060-069>072-079>082-041900-
SOUTHWEST NEBRASKA

CITY           SKY/WX    TMP DP  RH WIND       PRES   REMARKS
NORTH PLATTE   LGT RAIN  67  64  90 N3        29.99R
6HR MIN TEMP:  66; 6HR MAX TEMP:  69; 6HR PCP:  0.05;

IMPERIAL       TSTM      63  59  87 NW23G38   30.05R FOG
6HR MIN TEMP:  67; 6HR MAX TEMP:  79;

LEXINGTON      CLOUDY    76  65  70 E16       29.97R
MCCOOK         CLOUDY    68  63  84 E23G31    29.93F
6HR MIN TEMP:  67; 6HR MAX TEMP:  71; 6HR PCP:  0.89;

OGALLALA       CLOUDY    66  65  97 E16       30.01R VSB 1
$$

NEZ005>010-023>029-035>040-094-041900-
NORTH CENTRAL NEBRASKA

CITY           SKY/WX    TMP DP  RH WIND       PRES   REMARKS
AINSWORTH      MOSUNNY   77  60  54 SE9       29.94R
BROKEN BOW     PTSUNNY   79  59  50 SE15G24   29.97F
6HR MIN TEMP:  69; 6HR MAX TEMP:  80;

O`NEILL        CLOUDY    74  66  74 E10       29.97R
ORD            CLOUDY    78  62  57 SE15G24   29.93F
6HR MIN TEMP:  65; 6HR MAX TEMP:  78; 6HR PCP:  0.04;

THEDFORD       PTSUNNY   75  59  57 SE13G20   29.97F
$$

NEZ041-046>049-061>064-073>077-083>087-041900-
SOUTH CENTRAL NEBRASKA

CITY           SKY/WX    TMP DP  RH WIND       PRES   REMARKS
GRAND ISLAND   CLOUDY    77  64  64 SE15      29.97F
6HR MIN TEMP:  68; 6HR MAX TEMP:  78; 6HR PCP: TRACE;

AURORA         PTSUNNY   76  68  74 SE12      29.97F
HASTINGS       PTSUNNY   77  65  66 E13       29.96F
6HR MIN TEMP:  67; 6HR MAX TEMP:  78;

HEBRON         PTSUNNY   77  66  68 E15G21    29.96S
HOLDREGE       CLOUDY    76  63  62 E16       29.96F
KEARNEY *      CLOUDY    73  63  68 E16G24    29.96F
YORK           PTSUNNY   79  68  69 SE10      29.98S
$$

NEZ011>018-030>034-042>045-041900-
NORTHEAST NEBRASKA

CITY           SKY/WX    TMP DP  RH WIND       PRES   REMARKS
NORFOLK        CLOUDY    70  64  81 E9        29.94F
6HR MIN TEMP:  65; 6HR MAX TEMP:  70; 6HR PCP:  0.04;

ALBION         PTSUNNY   70  66  89 SE10      29.95F
BLAIR          CLOUDY    69  63  82 SE9       29.96S
COLUMBUS *     PTSUNNY   72  64  78 SE7       29.97R
FREMONT        CLOUDY    72  64  76 SE7       29.98R
TEKAMAH        CLOUDY    72  64  76 VRB3      29.95F
6HR MIN TEMP:  66; 6HR MAX TEMP:  72; 6HR PCP:  0.02;

WAYNE          CLOUDY    72  65  78 SE12      29.94F
$$

NEZ050>053-065>068-078-088>093-041900-
SOUTHEAST NEBRASKA

CITY           SKY/WX    TMP DP  RH WIND       PRES   REMARKS
LINCOLN        MOSUNNY   80  67  64 SE12      29.97F
6HR MIN TEMP:  67; 6HR MAX TEMP:  80; 6HR PCP:  0.17;

OMAHA EPPLEY   CLOUDY    71  64  78 SE13      29.95F
6HR MIN TEMP:  66; 6HR MAX TEMP:  71; 6HR PCP:  0.20;

BEATRICE       MOSUNNY   80  68  67 E13       29.97S
FALLS CITY     CLOUDY    80  71  74 E12       29.98F
6HR MIN TEMP:  69; 6HR MAX TEMP:  80;

NEBRASKA CITY  CLOUDY    77  67  72 S9        29.98F
PLATTSMOUTH    CLOUDY    72  67  84 SE6       29.98F
$$

NEZ044-045-051>053-067-041900-
OMAHA AREA

CITY           SKY/WX    TMP DP  RH WIND       PRES   REMARKS
OMAHA EPPLEY   CLOUDY    71  64  78 SE13      29.95F
6HR MIN TEMP:  66; 6HR MAX TEMP:  71; 6HR PCP:  0.20;

BLAIR          CLOUDY    69  63  82 SE9       29.96S
FREMONT        CLOUDY    72  64  76 SE7       29.98R
MILLARD        CLOUDY    70  65  82 SE14      29.95F
OFFUTT AFB     CLOUDY    71  66  85 SE13      29.95F
PLATTSMOUTH    CLOUDY    72  67  84 SE6       29.98F
WAHOO          FAIR      71  67  85 SE15G21   29.96F
$$


USA.gov is the U.S. government's official web portal to all federal, state and local government web resources and services.